Time,TemperatureF,DewpointF,PressureIn,WindDirection,WindDirectionDegrees,WindSpeedMPH,WindSpeedGustMPH,Humidity,HourlyPrecipIn,Conditions,Clouds,dailyrainin,SoftwareType,DateUTC
2013-10-29 00:04:00,68.9,65.8,30.12,North,0,0.0,-999.0,90,-99.99,,,0.00,Acu-Link.com,2013-10-29 04:04:00,
2013-10-29 00:19:00,69.1,66.4,30.11,North,0,0.0,-999.0,91,-99.99,,,0.00,Acu-Link.com,2013-10-29 04:19:00,
2013-10-29 00:34:00,69.3,66.6,30.11,North,0,0.0,-999.0,91,-99.99,,,0.00,Acu-Link.com,2013-10-29 04:34:00,
2013-10-29 00:49:00,69.1,66.4,30.11,North,0,0.0,-999.0,91,-99.99,,,0.00,Acu-Link.com,2013-10-29 04:49:00,
2013-10-29 01:05:00,68.9,66.2,30.12,North,0,0.0,-999.0,91,-99.99,,,0.00,Acu-Link.com,2013-10-29 05:05:00,
2013-10-29 01:20:00,68.7,66.3,30.11,North,0,0.0,-999.0,92,-99.99,,,0.00,Acu-Link.com,2013-10-29 05:20:00,
2013-10-29 01:35:00,68.4,66.0,30.11,North,0,0.0,-999.0,92,-99.99,,,0.00,Acu-Link.com,2013-10-29 05:35:00,
2013-10-29 01:50:00,68.0,65.6,30.10,North,0,0.0,-999.0,92,-99.99,,,0.00,Acu-Link.com,2013-10-29 05:50:00,
2013-10-29 02:05:00,67.8,65.4,30.11,North,0,0.0,-999.0,92,-99.99,,,0.00,Acu-Link.com,2013-10-29 06:05:00,
2013-10-29 02:20:00,67.5,65.1,30.09,North,0,0.0,-999.0,92,-99.99,,,0.00,Acu-Link.com,2013-10-29 06:20:00,
2013-10-29 02:35:00,67.3,64.9,30.10,North,0,0.0,-999.0,92,-99.99,,,0.00,Acu-Link.com,2013-10-29 06:35:00,
2013-10-29 02:51:00,67.5,65.4,30.08,North,0,0.0,-999.0,93,-99.99,,,0.00,Acu-Link.com,2013-10-29 06:51:00,
2013-10-29 03:06:00,67.5,65.7,30.08,North,0,0.0,-999.0,94,-99.99,,,0.00,Acu-Link.com,2013-10-29 07:06:00,
2013-10-29 03:21:00,67.1,65.6,30.08,North,0,0.0,-999.0,95,-99.99,,,0.00,Acu-Link.com,2013-10-29 07:21:00,
2013-10-29 03:36:00,66.9,65.4,30.09,North,0,0.0,-999.0,95,-99.99,,,0.00,Acu-Link.com,2013-10-29 07:36:00,
2013-10-29 03:51:00,66.7,65.2,30.08,North,0,0.0,-999.0,95,-99.99,,,0.00,Acu-Link.com,2013-10-29 07:51:00,
2013-10-29 04:06:00,66.7,65.2,30.08,North,0,0.0,-999.0,95,-99.99,,,0.00,Acu-Link.com,2013-10-29 08:06:00,
2013-10-29 04:21:00,66.7,65.5,30.08,North,0,0.0,-999.0,96,-99.99,,,0.00,Acu-Link.com,2013-10-29 08:21:00,
2013-10-29 04:36:00,66.4,65.2,30.09,North,0,0.0,-999.0,96,-99.99,,,0.00,Acu-Link.com,2013-10-29 08:36:00,
2013-10-29 04:52:00,66.2,65.0,30.08,North,0,0.0,-999.0,96,-99.99,,,0.00,Acu-Link.com,2013-10-29 08:52:00,
2013-10-29 05:07:00,65.8,64.6,30.08,North,0,0.0,-999.0,96,-99.99,,,0.00,Acu-Link.com,2013-10-29 09:07:00,
2013-10-29 05:22:00,65.8,64.6,30.09,North,0,0.0,-999.0,96,-99.99,,,0.00,Acu-Link.com,2013-10-29 09:22:00,
2013-10-29 05:37:00,65.7,64.5,30.10,North,0,0.0,-999.0,96,-99.99,,,0.00,Acu-Link.com,2013-10-29 09:37:00,
2013-10-29 05:52:00,65.7,64.5,30.10,North,0,0.0,-999.0,96,-99.99,,,0.00,Acu-Link.com,2013-10-29 09:52:00,
2013-10-29 06:08:00,65.7,64.5,30.11,North,0,0.0,-999.0,96,-99.99,,,0.00,Acu-Link.com,2013-10-29 10:08:00,
2013-10-29 06:23:00,65.7,64.5,30.12,North,0,0.0,-999.0,96,-99.99,,,0.00,Acu-Link.com,2013-10-29 10:23:00,
2013-10-29 06:38:00,65.7,64.5,30.12,North,0,0.0,-999.0,96,-99.99,,,0.00,Acu-Link.com,2013-10-29 10:38:00,
2013-10-29 06:53:00,65.7,64.8,30.11,North,0,0.0,-999.0,97,-99.99,,,0.00,Acu-Link.com,2013-10-29 10:53:00,
2013-10-29 07:09:00,65.7,64.8,30.13,North,0,0.0,-999.0,97,-99.99,,,0.00,Acu-Link.com,2013-10-29 11:09:00,
2013-10-29 07:24:00,65.7,64.8,30.12,North,0,0.0,-999.0,97,-99.99,,,0.00,Acu-Link.com,2013-10-29 11:24:00,
2013-10-29 07:39:00,65.7,64.8,30.13,North,0,0.0,-999.0,97,-99.99,,,0.00,Acu-Link.com,2013-10-29 11:39:00,
2013-10-29 07:54:00,65.7,64.8,30.14,North,0,0.0,-999.0,97,-99.99,,,0.00,Acu-Link.com,2013-10-29 11:54:00,
2013-10-29 08:10:00,66.0,65.4,30.14,North,0,0.0,-999.0,98,-99.99,,,0.00,Acu-Link.com,2013-10-29 12:10:00,
2013-10-29 08:25:00,67.3,66.7,30.14,North,0,0.0,-999.0,98,-99.99,,,0.00,Acu-Link.com,2013-10-29 12:25:00,
2013-10-29 08:40:00,68.9,68.3,30.14,North,0,1.7,-999.0,98,-99.99,,,0.00,Acu-Link.com,2013-10-29 12:40:00,
2013-10-29 08:55:00,71.4,67.7,30.14,North,0,0.0,-999.0,88,-99.99,,,0.00,Acu-Link.com,2013-10-29 12:55:00,
2013-10-29 09:11:00,74.3,67.0,30.14,North,0,0.0,-999.0,78,-99.99,,,0.00,Acu-Link.com,2013-10-29 13:11:00,
2013-10-29 09:26:00,76.5,66.8,30.15,North,0,0.0,-999.0,72,-99.99,,,0.00,Acu-Link.com,2013-10-29 13:26:00,
2013-10-29 09:41:00,77.4,66.4,30.15,NNE,22,1.1,-999.0,69,-99.99,,,0.00,Acu-Link.com,2013-10-29 13:41:00,
2013-10-29 09:56:00,80.1,66.8,30.15,NNE,22,1.1,-999.0,64,-99.99,,,0.00,Acu-Link.com,2013-10-29 13:56:00,
2013-10-29 10:11:00,81.9,64.6,30.15,NNE,22,2.7,-999.0,56,-99.99,,,0.00,Acu-Link.com,2013-10-29 14:11:00,
2013-10-29 10:26:00,82.6,62.0,30.15,NE,45,3.7,-999.0,50,-99.99,,,0.00,Acu-Link.com,2013-10-29 14:26:00,
2013-10-29 10:41:00,83.5,62.3,30.15,NE,45,8.3,-999.0,49,-99.99,,,0.00,Acu-Link.com,2013-10-29 14:41:00,
2013-10-29 10:57:00,84.4,62.5,30.16,NE,45,5.3,-999.0,48,-99.99,,,0.00,Acu-Link.com,2013-10-29 14:57:00,
2013-10-29 11:12:00,83.8,60.8,30.14,ENE,67,4.7,-999.0,46,-99.99,,,0.00,Acu-Link.com,2013-10-29 15:12:00,
2013-10-29 11:27:00,82.2,61.1,30.14,NE,45,5.8,-999.0,49,-99.99,,,0.00,Acu-Link.com,2013-10-29 15:27:00,
2013-10-29 11:42:00,84.6,61.5,30.13,ENE,67,3.2,-999.0,46,-99.99,,,0.00,Acu-Link.com,2013-10-29 15:42:00,
2013-10-29 11:57:00,84.7,62.2,30.13,NE,45,4.2,-999.0,47,-99.99,,,0.00,Acu-Link.com,2013-10-29 15:57:00,
2013-10-29 12:12:00,82.9,62.3,30.14,NNE,22,6.8,-999.0,50,-99.99,,,0.00,Acu-Link.com,2013-10-29 16:12:00,
2013-10-29 12:27:00,82.9,62.9,30.13,NE,45,6.8,-999.0,51,-99.99,,,0.00,Acu-Link.com,2013-10-29 16:27:00,
2013-10-29 12:42:00,83.3,62.7,30.11,NE,45,5.8,-999.0,50,-99.99,,,0.00,Acu-Link.com,2013-10-29 16:42:00,
2013-10-29 12:57:00,84.6,62.7,30.11,ESE,112,2.7,-999.0,48,-99.99,,,0.00,Acu-Link.com,2013-10-29 16:57:00,
2013-10-29 13:13:00,84.7,62.8,30.10,NE,45,4.7,-999.0,48,-99.99,,,0.00,Acu-Link.com,2013-10-29 17:13:00,
2013-10-29 13:28:00,83.5,61.7,30.09,ENE,67,7.8,-999.0,48,-99.99,,,0.00,Acu-Link.com,2013-10-29 17:28:00,
2013-10-29 13:43:00,84.7,62.2,30.08,ENE,67,5.3,-999.0,47,-99.99,,,0.00,Acu-Link.com,2013-10-29 17:43:00,
2013-10-29 13:58:00,85.3,62.1,30.07,ENE,67,2.2,-999.0,46,-99.99,,,0.00,Acu-Link.com,2013-10-29 17:58:00,
2013-10-29 14:13:00,85.1,62.0,30.06,SSE,157,3.7,-999.0,46,-99.99,,,0.00,Acu-Link.com,2013-10-29 18:13:00,
2013-10-29 14:28:00,84.2,62.4,30.05,South,180,5.3,-999.0,48,-99.99,,,0.00,Acu-Link.com,2013-10-29 18:28:00,
2013-10-29 14:43:00,84.4,62.5,30.04,ENE,67,4.2,-999.0,48,-99.99,,,0.00,Acu-Link.com,2013-10-29 18:43:00,
2013-10-29 14:58:00,82.9,61.2,30.05,NE,45,3.2,-999.0,48,-99.99,,,0.00,Acu-Link.com,2013-10-29 18:58:00,
2013-10-29 15:13:00,84.2,60.5,30.05,NE,45,7.8,-999.0,45,-99.99,,,0.00,Acu-Link.com,2013-10-29 19:13:00,
2013-10-29 15:29:00,83.3,60.9,30.06,NNE,22,5.3,-999.0,47,-99.99,,,0.00,Acu-Link.com,2013-10-29 19:29:00,
2013-10-29 15:44:00,84.4,61.3,30.05,NE,45,2.2,-999.0,46,-99.99,,,0.00,Acu-Link.com,2013-10-29 19:44:00,
2013-10-29 15:59:00,82.9,59.4,30.06,East,90,3.7,-999.0,45,-99.99,,,0.00,Acu-Link.com,2013-10-29 19:59:00,
2013-10-29 16:14:00,82.9,59.4,30.05,ENE,67,7.8,-999.0,45,-99.99,,,0.00,Acu-Link.com,2013-10-29 20:14:00,
2013-10-29 16:29:00,82.2,58.7,30.05,NE,45,4.7,-999.0,45,-99.99,,,0.00,Acu-Link.com,2013-10-29 20:29:00,
2013-10-29 16:44:00,82.9,58.7,30.06,East,90,3.2,-999.0,44,-99.99,,,0.00,Acu-Link.com,2013-10-29 20:44:00,
2013-10-29 16:59:00,82.8,59.3,30.06,East,90,8.9,-999.0,45,-99.99,,,0.00,Acu-Link.com,2013-10-29 20:59:00,
2013-10-29 17:14:00,81.0,57.6,30.09,NE,45,7.3,-999.0,45,-99.99,,,0.00,Acu-Link.com,2013-10-29 21:14:00,
2013-10-29 17:29:00,81.1,57.7,30.08,NE,45,4.2,-999.0,45,-99.99,,,0.00,Acu-Link.com,2013-10-29 21:29:00,
2013-10-29 17:45:00,81.0,57.6,30.08,NNE,22,4.2,-999.0,45,-99.99,,,0.00,Acu-Link.com,2013-10-29 21:45:00,
2013-10-29 18:00:00,80.4,57.1,30.09,NE,45,8.9,-999.0,45,-99.99,,,0.00,Acu-Link.com,2013-10-29 22:00:00,
2013-10-29 18:15:00,79.9,57.2,30.10,NNE,22,3.2,-999.0,46,-99.99,,,0.00,Acu-Link.com,2013-10-29 22:15:00,
2013-10-29 18:30:00,79.3,57.3,30.11,ENE,67,4.7,-999.0,47,-99.99,,,0.00,Acu-Link.com,2013-10-29 22:30:00,
2013-10-29 18:45:00,78.6,57.8,30.12,NE,45,2.2,-999.0,49,-99.99,,,0.00,Acu-Link.com,2013-10-29 22:45:00,
2013-10-29 19:00:00,78.3,58.1,30.13,NNE,22,2.2,-999.0,50,-99.99,,,0.00,Acu-Link.com,2013-10-29 23:00:00,
2013-10-29 19:16:00,77.9,58.3,30.13,NNE,22,2.7,-999.0,51,-99.99,,,0.00,Acu-Link.com,2013-10-29 23:16:00,
2013-10-29 19:31:00,77.4,58.4,30.14,NNE,22,2.2,-999.0,52,-99.99,,,0.00,Acu-Link.com,2013-10-29 23:31:00,
2013-10-29 19:46:00,77.0,58.5,30.14,NNE,22,2.2,-999.0,53,-99.99,,,0.00,Acu-Link.com,2013-10-29 23:46:00,
2013-10-29 20:01:00,76.6,59.2,30.14,NNE,22,0.0,-999.0,55,-99.99,,,0.00,Acu-Link.com,2013-10-30 00:01:00,
2013-10-29 20:16:00,76.6,59.7,30.14,NNE,22,0.0,-999.0,56,-99.99,,,0.00,Acu-Link.com,2013-10-30 00:16:00,
2013-10-29 20:31:00,76.6,61.2,30.15,NE,45,4.7,-999.0,59,-99.99,,,0.00,Acu-Link.com,2013-10-30 00:31:00,
2013-10-29 20:46:00,76.6,62.6,30.15,NE,45,1.1,-999.0,62,-99.99,,,0.00,Acu-Link.com,2013-10-30 00:46:00,
2013-10-29 21:01:00,76.1,62.1,30.15,East,90,4.2,-999.0,62,-99.99,,,0.00,Acu-Link.com,2013-10-30 01:01:00,
2013-10-29 21:16:00,77.7,60.7,30.16,South,180,2.7,-999.0,56,-99.99,,,0.00,Acu-Link.com,2013-10-30 01:16:00,
2013-10-29 21:31:00,78.1,61.6,30.15,SSE,157,2.2,-999.0,57,-99.99,,,0.00,Acu-Link.com,2013-10-30 01:31:00,
2013-10-29 21:47:00,76.6,61.7,30.15,ENE,67,7.3,-999.0,60,-99.99,,,0.00,Acu-Link.com,2013-10-30 01:47:00,
2013-10-29 22:02:00,77.5,61.0,30.17,NE,45,6.3,-999.0,57,-99.99,,,0.00,Acu-Link.com,2013-10-30 02:02:00,
2013-10-29 22:17:00,77.5,59.5,30.16,NE,45,2.7,-999.0,54,-99.99,,,0.00,Acu-Link.com,2013-10-30 02:17:00,
2013-10-29 22:32:00,77.7,60.2,30.16,East,90,2.2,-999.0,55,-99.99,,,0.00,Acu-Link.com,2013-10-30 02:32:00,
2013-10-29 22:47:00,77.5,59.5,30.16,NE,45,4.7,-999.0,54,-99.99,,,0.00,Acu-Link.com,2013-10-30 02:47:00,
2013-10-29 23:02:00,77.4,59.4,30.16,NE,45,7.8,-999.0,54,-99.99,,,0.00,Acu-Link.com,2013-10-30 03:02:00,
2013-10-29 23:18:00,77.2,58.7,30.16,NE,45,2.7,-999.0,53,-99.99,,,0.00,Acu-Link.com,2013-10-30 03:18:00,
2013-10-29 23:33:00,77.2,58.7,30.16,ENE,67,4.2,-999.0,53,-99.99,,,0.00,Acu-Link.com,2013-10-30 03:33:00,
2013-10-29 23:48:00,77.4,59.9,30.16,NE,45,2.2,-999.0,55,-99.99,,,0.00,Acu-Link.com,2013-10-30 03:48:00,